Hourly Weather Roundup
Issued by NWS Central Illinois

Home | Current Version | Previous Version | Text Only | Print | Product List | Glossary On
Versions: 1 2 3 4 5 6 7 8 9 10 11 12 13 14 15 16 17 18 19 20 21 22 23 24 25 26 27 28 29 30 31 32 33 34 35 36 37 38 39 40 41 42 43 44 45 46 47 48 49 50
000
NZUS43 KILX 310510
HWRILX

AREA WEATHER ROUNDUP
NATIONAL WEATHER SERVICE, LINCOLN IL
1200 AM CDT FRI OCT 31 2014


CITY           SKY/WX    TMP DP  RH WIND       PRES   REMARKS
BLOOMINGTON    CLOUDY    44  42  93 N5        30.08S
CHAMPAIGN      MOCLDY    44  42  93 N8        30.06S
DECATUR        CLOUDY    46  44  93 N5        30.07R
FLORA          MOCLDY    48  45  91 NE8       30.05S
GALESBURG      DRIZZLE   44  41  90 NW3       30.11R
JACKSONVILLE   CLOUDY    46  43  91 N5        30.08S
LACON          CLOUDY    42  40  93 CALM      30.08S
LAWRENCEVILLE  LGT RAIN  48  45  89 NE5       30.07S
LITCHFIELD     CLOUDY    47  43  84 E8        30.05S
$$


CITY           SKY/WX    TMP DP  RH WIND       PRES   REMARKS
LINCOLN        LGT RAIN  45  42  90 CALM      30.07S
MACOMB         CLOUDY    45  41  88 N3        30.12S
MATTOON        CLOUDY    46  43  89 CALM      30.05S
MT CARMEL AP   DRIZZLE   50  46  87 E5        30.06S
OLNEY-NOBLE AP LGT RAIN  46  45  93 CALM      30.06S
PARIS          MOCLDY    46  44  95 CALM      30.06F
PEORIA         CLOUDY    46  42  86 CALM      30.09S FOG
PONTIAC        CLOUDY    43  42  93 W5        30.08F
RANTOUL        CLOUDY    45  42  90 NW3       30.07F
ROBINSON       LGT RAIN  48  46  92 CALM      30.08S
SPRINGFIELD    CLOUDY    47  43  86 N5        30.08R
TAYLORVILLE    CLOUDY    45  43  93 CALM      30.06R
$$

...REGIONAL REPORTS...


CITY           SKY/WX    TMP DP  RH WIND       PRES   REMARKS
CHICAGO O`HARE CLOUDY    46  36  68 W7        30.03F
KANKAKEE       CLOUDY    42  38  88 W6        30.06F
MOLINE         CLOUDY    46  39  76 W3        30.10F
MOUNT VERNON   CLOUDY    48  45  87 NE3       30.04S
PITTSFIELD     MOCLDY    46  42  87 N3        30.09R
QUINCY         CLOUDY    47  41  80 N9        30.10R
ROCKFORD       LGT RAIN  47  38  71 NW9       30.08S
$$


CITY           SKY/WX    TMP DP  RH WIND       PRES   REMARKS
BURLINGTON     CLOUDY    47  41  80 N5        30.12R
CEDAR RAPIDS   CLOUDY    47  37  68 N16G26    30.15R
DES MOINES     MOCLDY    47  34  60 N21G26    30.26R
KIRKSVILLE     CLOUDY    50  43  77 N8        30.14R
OTTUMWA        LGT RAIN  49  36  61 N20       30.17R
ST LOUIS       MOCLDY    50  45  83 NW7       30.05S
$$


CITY           SKY/WX    TMP DP  RH WIND       PRES   REMARKS
TERRE HAUTE    CLOUDY    47  44  90 CALM      30.06F
EVANSVILLE     CLOUDY    51  44  77 CALM      30.04F
INDIANAPOLIS   CLOUDY    47  40  76 NW5       30.04F
LAFAYETTE      MOCLDY    44  39  82 W3        30.05S
MADISON        CLOUDY    44  32  62 NW9       30.07S
MILWAUKEE      CLOUDY    47  37  68 NW9       30.02S
$$





USA.gov is the U.S. government's official web portal to all federal, state and local government web resources and services.